FW1843 Weather Reports


time (UTC)temp
F
wind
direction
speed
knots
gust
knots
rain 1hr
in
rain 24hr
in
rain mn
in
humidity
%
barometer
mb
20260508043102 53 360 1.7 4.3 0.00 0.04 0.04 59 1012.5
20260508041559 54 360 1.7 3.5 0.00 0.04 0.04 57 1012.6
20260508040056 55 360 1.7 5.2 0.00 0.04 0.04 56 1012.3
20260508034557 56 360 2.6 5.2 0.00 0.04 0.04 54 1012.2
20260508033050 55 117 1.7 7.8 0.00 0.04 0.04 55 1012.0
20260508031548 54 360 5.2 7.8 0.00 0.04 0.04 59 1011.7
20260508030047 55 360 2.6 8.7 0.00 0.04 0.04 59 1011.6
20260508024549 54 360 1.7 7.8 0.00 0.04 0.04 62 1011.5
20260508023043 53 360 2.6 5.2 0.00 0.04 0.04 64 1011.2
20260508021545 54 360 3.5 7.8 0.00 0.04 0.04 65 1011.1
20260508020041 54 109 4.3 7.8 0.00 0.04 0.04 64 1011.1
20260508014548 55 360 7.8 10.4 0.00 0.04 0.04 63 1010.9
20260508013043 57 360 7.0 8.7 0.00 0.04 0.04 59 1010.8
20260508011542 57 360 9.6 13.9 0.00 0.04 0.04 56 1010.7
20260508010036 56 360 10.4 16.5 0.00 0.04 0.04 60 1010.5
20260508004535 58 360 8.7 14.8 0.00 0.04 0.04 56 1010.5
20260508003052 63 265 8.7 15.6 0.00 0.04 0.04 48 1009.8
20260508001532 63 360 11.3 15.6 0.00 0.04 0.04 48 1009.8
20260508000032 63 252 10.4 15.6 0.00 0.04 0.04 49 1009.9
20260507234531 63 250 4.3 10.4 0.00 0.04 0.04 49 1009.9
20260507233033 62 232 5.2 13.0 0.00 0.04 0.04 50 1010.0
20260507231530 62 360 7.8 13.9 0.00 0.04 0.04 49 1010.0
20260507230028 63 360 6.1 16.5 0.00 0.04 0.04 46 1009.9
20260507224524 63 246 7.0 13.0 0.00 0.04 0.04 48 1010.1
20260507223021 63 273 8.7 13.9 0.00 0.04 0.04 46 1010.1
20260507221518 62 360 8.7 13.9 0.00 0.04 0.04 47 1010.4
20260507220017 62 292 8.7 15.6 0.00 0.04 0.04 48 1010.5
20260507214516 61 279 7.8 14.8 0.00 0.04 0.04 48 1010.7
20260507213046 61 279 7.8 13.9 0.00 0.04 0.04 48 1010.8
20260507211559 61 273 4.3 13.9 0.00 0.04 0.04 50 1011.0
20260507210041 60 360 7.8 13.9 0.00 0.04 0.04 51 1011.1
20260507204537 59 360 7.8 12.2 0.00 0.04 0.04 52 1011.1
20260507203036 59 360 5.2 11.3 0.00 0.04 0.04 51 1011.2
20260507201535 59 298 7.8 11.3 0.00 0.04 0.04 50 1011.1
20260507200032 59 360 4.3 10.4 0.00 0.04 0.04 50 1011.0
20260507194536 59 253 3.5 10.4 0.00 0.04 0.04 51 1010.9
20260507193034 58 360 4.3 9.6 0.00 0.04 0.04 52 1011.0
20260507191527 57 360 4.3 8.7 0.00 0.04 0.04 51 1011.1
20260507190023 57 360 2.6 8.7 0.00 0.04 0.04 53 1011.2
20260507184521 57 360 2.6 5.2 0.00 0.04 0.04 55 1011.2
20260507183021 56 332 4.3 7.8 0.00 0.04 0.04 58 1011.4
20260507181518 56 360 5.2 11.3 0.00 0.04 0.04 58 1011.6
20260507180018 56 360 6.1 11.3 0.00 0.04 0.04 61 1011.7
20260507174516 56 360 6.1 11.3 0.00 0.04 0.04 60 1011.4
20260507173014 56 360 5.2 10.4 0.00 0.04 0.04 62 1011.4
20260507171512 56 360 7.0 10.4 0.00 0.04 0.04 64 1011.6
20260507170011 55 360 4.3 8.7 0.00 0.04 0.04 64 1011.4
20260507164509 55 321 5.2 9.6 0.00 0.04 0.04 65 1011.4
20260507163007 55 360 3.5 7.0 0.00 0.04 0.04 68 1011.3
20260507161506 54 360 3.5 7.8 0.00 0.04 0.04 69 1011.4
20260507160005 54 313 3.5 7.8 0.00 0.04 0.04 72 1011.2
20260507154502 54 360 4.3 7.0 0.00 0.04 0.04 70 1011.2
20260507153002 53 360 3.5 7.8 0.00 0.04 0.04 71 1011.2
20260507151501 53 360 0.0 5.2 0.00 0.04 0.04 74 1011.2
20260507150002 52 360 3.5 7.0 0.01 0.04 0.04 77 1011.1
20260507144558 51 360 3.5 5.2 0.01 0.04 0.04 78 1011.0
20260507143103 50 360 0.9 3.5 0.02 0.04 0.04 81 1011.1
20260507141558 49 360 0.0 2.6 0.02 0.04 0.04 81 1010.9
20260507140109 49 315 1.7 3.5 0.01 0.03 0.03 79 1011.2
20260507134527 49 317 0.0 0.0 0.01 0.03 0.03 79 1011.3
20260507133023 50 317 0.0 4.3 0.00 0.02 0.02 78 1011.0
20260507131525 50 360 1.7 4.3 0.00 0.02 0.02 76 1010.9
20260507130018 49 315 3.5 7.0 0.00 0.02 0.02 77 1010.8
20260507124518 50 360 3.5 5.2 0.00 0.02 0.02 76 1010.8
20260507123021 50 360 2.6 8.7 0.02 0.02 0.02 73 1010.5
20260507121510 51 360 7.8 11.3 0.02 0.02 0.02 72 1010.4
20260507120009 50 360 4.3 10.4 0.02 0.02 0.02 73 1010.1
20260507114508 51 360 7.0 12.2 0.01 0.01 0.01 73 1010.2
20260507113002 52 278 7.8 15.6 0.00 0.00 0.00 68 1010.2
20260507111557 54 360 9.6 13.0 0.00 0.00 0.00 60 1010.1
20260507110058 54 360 7.0 13.9 0.00 0.00 0.00 60 1010.0
20260507104554 54 275 9.6 13.9 0.00 0.00 0.00 58 1010.1
20260507103052 54 360 8.7 13.0 0.00 0.00 0.00 58 1010.0
20260507101602 54 360 7.8 12.2 0.00 0.00 0.00 57 1010.1
20260507100050 54 300 8.7 12.2 0.00 0.00 0.00 57 1010.0
20260507094557 54 360 7.8 18.2 0.00 0.00 0.00 58 1009.9
20260507093046 54 360 7.8 10.4 0.00 0.00 0.00 58 1009.9
20260507091555 55 295 6.1 9.6 0.00 0.00 0.00 57 1009.6
20260507090100 55 284 9.6 12.2 0.00 0.00 0.00 59 1009.6
20260507084539 55 360 7.8 13.9 0.00 0.00 0.00 60 1009.4
20260507083040 56 360 8.7 13.0 0.00 0.00 0.00 59 1009.2
20260507081548 55 360 6.1 11.3 0.00 0.00 0.00 60 1009.2
20260507080031 55 360 6.1 10.4 0.00 0.00 0.00 59 1009.2
20260507074531 54 360 7.0 11.3 0.00 0.00 0.00 60 1009.3
20260507073027 54 360 6.1 8.7 0.00 0.00 0.00 61 1009.3
20260507071600 54 360 5.2 10.4 0.00 0.00 0.00 61 1009.4
20260507070136 54 360 6.1 10.4 0.00 0.00 0.00 62 1009.6
20260507064551 54 360 5.2 11.3 0.00 0.00 0.00 62 1009.6
20260507063047 54 360 7.0 13.0 0.00 0.00 0.00 63 1009.6
20260507061547 54 207 6.1 9.6 0.00 0.00 0.00 65 1009.7
20260507060045 54 190 9.6 12.2 0.00 0.00 0.00 66 1009.7
20260507054548 55 193 7.8 12.2 0.00 0.00 0.00 65 1009.9
20260507053044 56 204 7.8 12.2 0.00 0.00 0.00 63 1010.0
20260507051541 57 207 6.1 16.5 0.00 0.00 0.00 59 1010.1
20260507050040 57 215 9.6 14.8 0.00 0.00 0.00 57 1010.0
20260507044546 58 360 6.1 10.4 0.00 0.00 0.00 57 1009.9